Home > Weather > Oss > Past weeks

Flag for Netherlands Weather for the Past 2 Weeks in Oss, Netherlands

Now
54 °F

Cool.


Feels Like: 52 °F
Forecast: 49 / 74 °F
Wind: 6 mph from East

Location: Volkel

Current Time: May 6, 2016 at 12:18:28 AM

Latest Report: May 5, 2016 at 11:55 PM


Visibility: N/A

Pressure: 30.07 "Hg

Humidity: 67%

Dew Point: 43 °F

Location of OssLocation

Historic Weather in Oss — Graph

°F

Oss Temperature Yesterday

Maximum temperature yesterday: 68 °F (at 4:55 PM)
Minimum temperature yesterday: 41 °F (at 5:25 AM)
Average temperature yesterday: 55 °F

High & Low Weather Summary for the Past Weeks

 TemperatureHumidityPressure
High68 °F (May 5, 4:55 PM)100% (Apr 25, 6:25 AM)30.42 "Hg (Apr 25, 6:25 AM)
Low32 °F (Apr 25, 3:25 AM)30% (May 5, 2:55 PM)29.47 "Hg (Apr 26, 6:25 AM)
Average47 °F71%30.03 "Hg
* Reported Apr 20 10:25 PM — May 5 10:55 PM, Oss, Weather by CustomWeather, © 2016

Note: Actual official high and low records may vary slightly from our data, if they occured in-between our weather recording intervals... More about our weather records

Advertising

Oss Weather History for the Previous 24 Hours

Scroll right to see more
 ConditionsComfort  
Time TempWeatherWind HumidityBarometerVisibility
10:55 PM
Thu, May 5
54 °FCool.6 mph67%30.07 "HgN/A
10:25 PM54 °FCool.7 mph67%30.07 "HgN/A
9:55 PM55 °FCool.7 mph63%30.07 "HgN/A
9:25 PM57 °FRefreshingly cool.7 mph59%30.07 "HgN/A
8:55 PM57 °FCool.8 mph63%30.07 "HgN/A
8:25 PM63 °FMild.10 mph49%30.09 "HgN/A
7:55 PM64 °FMild.13 mph46%30.09 "HgN/A
7:25 PM66 °FPassing clouds.10 mph43%30.09 "HgN/A
6:55 PM68 °FMild.10 mph38%30.09 "HgN/A
6:25 PM68 °FMild.10 mph38%30.12 "HgN/A
5:55 PM68 °FMild.10 mph38%30.12 "HgN/A
5:25 PM68 °FPassing clouds.9 mph38%30.12 "HgN/A
4:55 PM68 °FMild.9 mph38%30.15 "HgN/A
4:25 PM66 °FMild.12 mph37%30.15 "HgN/A
3:55 PM66 °FScattered clouds.10 mph35%30.18 "HgN/A
3:25 PM64 °FMild.12 mph34%30.18 "HgN/A
2:55 PM64 °FMild.10 mph30%30.18 "HgN/A
2:25 PM64 °FMild.12 mph32%30.21 "HgN/A
1:55 PM63 °FPassing clouds.9 mph34%30.21 "HgN/A
1:25 PM63 °FPassing clouds.12 mph32%30.24 "HgN/A
12:55 PM63 °FMild.12 mph34%30.24 "HgN/A
12:25 PM63 °FPassing clouds.13 mph32%30.24 "HgN/A
11:55 AM61 °FRefreshingly cool.13 mph34%30.27 "HgN/A
11:25 AM61 °FPassing clouds.12 mph34%30.27 "HgN/A
10:55 AM59 °FRefreshingly cool.12 mph39%30.27 "HgN/A
10:25 AM59 °FRefreshingly cool.12 mph42%30.27 "HgN/A
9:55 AM57 °FRefreshingly cool.9 mph44%30.30 "HgN/A
9:25 AM55 °FRefreshingly cool.9 mph47%30.30 "HgN/A
8:55 AM54 °FCool.9 mph51%30.30 "HgN/A
8:25 AM50 °FScattered clouds.7 mph58%30.30 "HgN/A
7:55 AM48 °FCool.6 mph62%30.30 "HgN/A
7:25 AM45 °FQuite cool.5 mph71%30.30 "HgN/A
6:55 AM43 °FQuite cool.5 mph71%30.30 "HgN/A
6:25 AM41 °FQuite cool.5 mph76%30.30 "HgN/A
5:55 AM41 °FPassing clouds.5 mph76%30.30 "HgN/A
5:25 AM41 °FQuite cool.5 mph76%30.30 "HgN/A
4:55 AM43 °FQuite cool.5 mph71%30.30 "HgN/A
4:25 AM43 °FQuite cool.5 mph71%30.30 "HgN/A
3:55 AM43 °FQuite cool.5 mph71%30.30 "HgN/A
3:25 AM43 °FQuite cool.6 mph71%30.30 "HgN/A
2:55 AM43 °FQuite cool.7 mph71%30.30 "HgN/A
2:25 AM45 °FQuite cool.6 mph66%30.30 "HgN/A
1:55 AM45 °FQuite cool.6 mph66%30.33 "HgN/A
1:25 AM45 °FQuite cool.6 mph71%30.33 "HgN/A
12:55 AM45 °FQuite cool.5 mph71%30.33 "HgN/A
12:25 AM45 °FQuite cool.5 mph66%30.33 "HgN/A
Weather by CustomWeather, © 2016

See weather overviewHow to use our weather pages